Location: Asheville, NC
(35.6000°N, 82.5500°W)
Time: 01:23:30
(UTC-05:00)

Vanguard 2 - Pass Details

Date: 14 February 2018
Orbit: 553 x 2939 km, 32.9° (Epoch: 23 February)

Event Time Altitude Azimuth Distance (km) Brightness Sun altitude
Rises 00:22:17 0° 272° (W) 2,831 - -66.9°
Reaches altitude 10° 00:24:44 10° 263° (W) 1,842 - -67.0°
Maximum altitude 00:28:21 34° 197° (SSW) 923 - -67.1°
Drops below altitude 10° 00:32:11 10° 131° (SE) 1,950 - -67.3°
Sets 00:34:52 0° 122° (ESE) 3,028 - -67.3°
